User: anonymous   Login
Location: Invercargill
(46.4000°S, 168.3500°E)
Time: 11:45:42
(UTC+13:00)
Language:

Cosmos 968 Rocket - Orbit

View from above orbital plane
View from above orbital plane
View from above satellite
View from above satellite

Ground track
Ground track

The orbit data is extracted from the following two-line orbital elements,

1 10521U 77119B   19290.11317384  .00000094  00000-0  37562-4 0  9993
2 10521  74.0262 130.2275 0021975 293.8632  66.0221 14.40764872194946
Epoch (UTC): 17 October 2019 02:42:58
Eccentricity: 0.0021975
inclination: 74.0262°
perigee height: 740 km
apogee height: 771 km
right ascension of ascending node: 130.2275°
argument of perigee: 293.8632°
revolutions per day: 14.40764872
mean anomaly at epoch: 66.0221°
orbit number at epoch: 19494

The dashed part of the orbit path shows where the satellite is in the earth's shadow,  

DLR